Weather reports worldwide

Advertisment
Banja Luka, Bosnia/Herzegovina (14542): temperature & dewpoint: 19.11.2020 00:00:00 - 25.11.2020 00:00:00 (CET)Banja Luka, Bosnia/Herzegovina (14542): wind speed: 19.11.2020 00:00:00 - 25.11.2020 00:00:00 (CET)Banja Luka, Bosnia/Herzegovina (14542): wind direction: 19.11.2020 00:00:00 - 25.11.2020 00:00:00 (CET)Banja Luka, Bosnia/Herzegovina (14542): reduced air pressure: 19.11.2020 00:00:00 - 25.11.2020 00:00:00 (CET)Banja Luka, Bosnia/Herzegovina (14542): visibility: 19.11.2020 00:00:00 - 25.11.2020 00:00:00 (CET)
Date & Time tt [°C] td [°C] ff [km/h] ff [kn] dd ppp [hPa] vv [km]
25.11.2020 00:00:00 - - - - - - -
24.11.2020 23:00:00 - - - - - - -
24.11.2020 22:00:00 - - - - - - -
24.11.2020 21:00:00 - - - - - - -
24.11.2020 20:00:00 - - - - - - -
24.11.2020 19:00:00 - - - - - - -
24.11.2020 18:00:00 - - - - - - -
24.11.2020 17:00:00 - - - - - - -
24.11.2020 16:00:00 - - - - - - -
24.11.2020 15:00:00 - - - - - - -
24.11.2020 14:00:00 8,6 5,0 7 4 NNE 1030,1 12
24.11.2020 13:00:00 10,2 5,0 7 4 N 1030,5 6
24.11.2020 12:00:00 - - - - - - -
24.11.2020 11:00:00 - - - - - - -
24.11.2020 10:00:00 - - - - - - -
24.11.2020 09:00:00 3,8 2,7 4 2 NNE 1032,6 3,0
24.11.2020 08:00:00 - - - - - - -
24.11.2020 07:00:00 - - - - - - -
24.11.2020 06:00:00 - - - - - - -
24.11.2020 05:00:00 - - - - - - -
24.11.2020 04:00:00 - - - - - - -
24.11.2020 03:00:00 - - - - - - -
24.11.2020 02:00:00 - - - - - - -
24.11.2020 01:00:00 - - - - - - -
24.11.2020 00:00:00 - - - - - - -
23.11.2020 23:00:00 - - - - - - -
23.11.2020 22:00:00 2,1 0,9 4 2 WSW 1031,6 1,0
23.11.2020 21:00:00 - - - - - - -
23.11.2020 20:00:00 - - - - - - -
23.11.2020 19:00:00 - - - - - - -
23.11.2020 18:00:00 - - - - - - -
23.11.2020 17:00:00 - - - - - - -
23.11.2020 16:00:00 - - - - - - -
23.11.2020 15:00:00 - - - - - - -
23.11.2020 14:00:00 - - - - - - -
23.11.2020 13:00:00 - - - - - - -
23.11.2020 12:00:00 - - - - - - -
23.11.2020 11:00:00 - - - - - - -
23.11.2020 10:00:00 2,7 0,8 4 2 NNE 1029,3 6
23.11.2020 09:00:00 0,4 -0,9 4 2 SSW 1029,2 6
23.11.2020 08:00:00 - - - - - - -
23.11.2020 07:00:00 -2,4 -3,6 4 2 W 1028,9 12
23.11.2020 06:00:00 -2,5 -3,6 0 0 N 1029,1 10
23.11.2020 05:00:00 -2,3 -3,6 0 0 N 1029,7 10
23.11.2020 04:00:00 -2,2 -3,6 0 0 N 1029,8 10
23.11.2020 03:00:00 - - - - - - -
23.11.2020 02:00:00 - - - - - - -
23.11.2020 01:00:00 -1,2 -2,2 0 0 N 1031,2 10
23.11.2020 00:00:00 - - - - - - -
22.11.2020 23:00:00 - - - - - - -
22.11.2020 22:00:00 -0,5 -1,9 0 0 N 1032,2 10
22.11.2020 21:00:00 -0,3 -1,9 0 0 N 1032,5 10
22.11.2020 20:00:00 -0,1 -1,9 0 0 N 1032,8 10
22.11.2020 19:00:00 0,6 -0,7 0 0 N 1032,1 15
22.11.2020 18:00:00 1,6 -0,9 0 0 N 1031,8 12
22.11.2020 17:00:00 3,4 0,0 4 2 NNW 1031,9 12
22.11.2020 16:00:00 4,6 0,4 4 2 N 1032,4 12
22.11.2020 15:00:00 5,4 0,0 4 2 NNW 1032,4 12
22.11.2020 14:00:00 5,8 -0,5 4 2 NNW 1032,8 12
22.11.2020 13:00:00 5,9 -0,9 4 2 NE 1033,6 12
22.11.2020 12:00:00 3,5 -0,8 4 2 NW 1034,2 10
22.11.2020 11:00:00 2,8 -0,3 4 2 NW 1034,9 10
22.11.2020 10:00:00 2,0 -1,8 4 2 NNW - 9
22.11.2020 09:00:00 1,2 -1,2 4 2 NNW 1035,3 10
22.11.2020 08:00:00 - - - - - - -
22.11.2020 07:00:00 - - - - - - -
22.11.2020 06:00:00 - - - - - - -
22.11.2020 05:00:00 - - - - - - -
22.11.2020 04:00:00 0,7 -1,5 4 2 NNE 1035,0 20
22.11.2020 03:00:00 - - - - - - -
22.11.2020 02:00:00 - - - - - - -
22.11.2020 01:00:00 - - - - - - -
22.11.2020 00:00:00 - - - - - - -
21.11.2020 23:00:00 - - - - - - -
21.11.2020 22:00:00 - - - - - - -
21.11.2020 21:00:00 - - - - - - -
21.11.2020 20:00:00 - - - - - - -
21.11.2020 19:00:00 - - - - - - -
21.11.2020 18:00:00 - - - - - - -
21.11.2020 17:00:00 - - - - - - -
21.11.2020 16:00:00 - - - - - - -
21.11.2020 15:00:00 - - - - - - -
21.11.2020 14:00:00 6,2 -3,5 11 6 NNE 1034,6 25
21.11.2020 13:00:00 5,8 -1,2 11 6 N 1035,3 25
21.11.2020 12:00:00 6,0 0,0 7 4 NNE 1035,9 15
21.11.2020 11:00:00 - - - - - - -
21.11.2020 10:00:00 - - - - - - -
21.11.2020 09:00:00 2,9 0,0 4 2 SSW 1036,0 12
21.11.2020 08:00:00 1,9 0,7 0 0 N 1015,6 12
21.11.2020 07:00:00 1,7 0,7 0 0 N 1034,8 10
21.11.2020 06:00:00 - - - - - - -
21.11.2020 05:00:00 - - - - - - -
21.11.2020 04:00:00 - - - - - - -
21.11.2020 03:00:00 - - - - - - -
21.11.2020 02:00:00 - - - - - - -
21.11.2020 01:00:00 - - - - - - -
21.11.2020 00:00:00 - - - - - - -
20.11.2020 23:00:00 - - - - - - -
20.11.2020 22:00:00 - - - - - - -
20.11.2020 21:00:00 - - - - - - -
20.11.2020 20:00:00 - - - - - - -
20.11.2020 19:00:00 - - - - - - -
20.11.2020 18:00:00 7,4 6,6 11 6 N 1027,5 4,0
20.11.2020 17:00:00 7,4 6,6 4 2 N 1026,2 4,0
20.11.2020 16:00:00 7,6 6,4 7 4 N 1025,6 4,0
20.11.2020 15:00:00 7,8 6,6 7 4 NNW 1025,2 3,0
20.11.2020 14:00:00 7,8 6,2 4 2 NNW 1025,0 3,0
20.11.2020 13:00:00 - - - - - - -
20.11.2020 12:00:00 7,9 5,9 0 0 N 1024,9 0,9
20.11.2020 11:00:00 7,7 6,2 4 2 NNE 1025,4 0,9
20.11.2020 10:00:00 - - - - - - -
20.11.2020 09:00:00 6,7 5,5 0 0 N 1025,7 0,9
20.11.2020 08:00:00 6,5 5,5 0 0 N 1025,5 0,9
20.11.2020 07:00:00 6,2 5,2 0 0 N 1025,5 0,9
20.11.2020 06:00:00 6,2 4,6 4 2 WSW 1025,0 5
20.11.2020 05:00:00 - - - - - - -
20.11.2020 04:00:00 6,2 4,6 4 2 WSW 1024,3 4,0
20.11.2020 03:00:00 - - - - - - -
20.11.2020 02:00:00 - - - - - - -
20.11.2020 01:00:00 6,2 4,6 4 2 W 1024,3 4,0
20.11.2020 00:00:00 - - - - - - -
19.11.2020 23:00:00 - - - - - - -
19.11.2020 22:00:00 6,0 4,3 4 2 ENE 1021,8 4,0
19.11.2020 21:00:00 6,3 4,4 4 2 ESE 1021,8 4,0
19.11.2020 20:00:00 6,4 4,3 4 2 ESE 1022,2 4,0
19.11.2020 19:00:00 6,6 4,5 4 2 ENE 1023,0 4,0
19.11.2020 18:00:00 6,8 5,0 4 2 SSE 1023,0 4,0
19.11.2020 17:00:00 7,0 5,0 4 2 ESE 1023,6 4,0
19.11.2020 16:00:00 7,2 5,2 4 2 ESE 1023,6 4,0
19.11.2020 15:00:00 7,4 5,0 0 0 N 1023,8 3,0
19.11.2020 14:00:00 - - - - - - -
19.11.2020 13:00:00 7,3 4,9 7 4 NNE 1024,7 3,0
19.11.2020 12:00:00 7,3 4,4 4 2 SW 1025,5 1,2
19.11.2020 11:00:00 7,0 4,3 4 2 S 1026,6 0,9
19.11.2020 10:00:00 - - - - - - -
19.11.2020 09:00:00 5,7 4,0 4 2 SSW 1027,6 0,8
19.11.2020 08:00:00 5,7 4,0 4 2 S 1027,6 0,8
19.11.2020 07:00:00 - - - - - - -
19.11.2020 06:00:00 - - - - - - -
19.11.2020 05:00:00 6,1 5,1 4 2 SSW 1029,2 2,0
19.11.2020 04:00:00 6,1 5,1 4 2 SSW 1029,6 2,0
19.11.2020 03:00:00 - - - - - - -
19.11.2020 02:00:00 - - - - - - -
19.11.2020 01:00:00 6,2 5,3 4 2 SSE 1030,5 2,0
19.11.2020 00:00:00 - - - - - - -

tt = temperature
td = dewpoint
ff = wind speed
dd = wind direction
ppp = reduced air pressure
vv = visibility

Next stations